Overview Statistics Trail Chart Weather Telemetry Raw packets
 

This is the latest recevied weather packets stored in our database for station/object DG0LHZ-10. If no packets are shown the sender has not sent any weather packets the latest 10 day(s).

<< 33 34 35 36 37 38 39 >>
Time Temp. Humidity Pressure Rain* Wind** Luminosity Snow
1787578950 27.22° C 38% 1024.2 hPa - - - -
1787578050 26.67° C 40% 1024.3 hPa - - - -
1787577150 26.11° C 41% 1024.5 hPa - - - -
1787576250 26.11° C 41% 1024.7 hPa - - - -
1787575350 25° C 43% 1024.8 hPa - - - -
1787574450 23.89° C 44% 1024.9 hPa - - - -
1787573549 23.33° C 45% 1025.1 hPa - - - -
1787572649 23.33° C 46% 1025 hPa - - - -
1787571749 22.78° C 47% 1025.1 hPa - - - -
1787569949 21.11° C 49% 1025.2 hPa - - - -
1787569049 21.11° C 49% 1025.2 hPa - - - -
1787568149 21.11° C 50% 1025.3 hPa - - - -
1787567249 21.11° C 50% 1025.3 hPa - - - -
1787566422 20.56° C 50% 1025.2 hPa - - - -
1787565449 20° C 51% 1025.3 hPa - - - -
1787564549 19.44° C 52% 1025.4 hPa - - - -
1787563650 18.89° C 52% 1025.4 hPa - - - -
1787562749 18.89° C 51% 1025.5 hPa - - - -
1787561849 18.33° C 51% 1025.5 hPa - - - -
1787560949 17.78° C 52% 1025.5 hPa - - - -
1787560051 17.22° C 52% 1025.6 hPa - - - -
1787559148 16.67° C 52% 1025.5 hPa - - - -
1787558248 16.11° C 52% 1025.6 hPa - - - -
1787557349 15° C 52% 1025.5 hPa - - - -
1787556448 14.44° C 53% 1025.6 hPa - - - -

* Rain since midnight (hover to see other rain measurements)
** Current wind speed in m/s (hover to see current wind gust speed)